Regional Weather Roundup
Issued by NWS

Home | Current Version | Previous Version | Text Only | Print | Product List | Glossary On
Versions: 1 2 3 4 5 6 7 8 9 10 11 12 13 14 15 16 17 18 19 20 21 22 23 24 25 26 27 28 29 30 31 32 33 34 35 36 37 38 39 40 41 42 43 44 45 46 47 48 49 50
000
ASUS45 KABQ 020510
RWRNM
NEW MEXICO REGIONAL WEATHER ROUNDUP
NATIONAL WEATHER SERVICE ALBUQUERQUE NM
1100 PM MDT WED JUL 01 2015

NOTE: "FAIR" MEANS FEW OR NO CLOUDS BELOW 12,000 FEET AGL WITH NO
       SIGNIFICANT WEATHER OR OBSTRUCTIONS TO VISION.

      THIS PRODUCT IS RELEASED AS TWO VERSIONS.  ONE VERSION NEAR
      THE TOP OF THE HOUR CONTAINING PRELIMINARY DATA FROM ALBUQUERQUE
      AND OTHER STATIONS.  A FINAL VERSION WITH ADDITIONAL DATA IS
      ISSUED ABOUT 10 MINUTES AFTER THE HOUR.

NMZ501-503-504-510>518-020600-
NORTHWEST PLATEAU/NORTHCENTRAL MOUNTAINS

CITY           SKY/WX    TMP DP  RH WIND       PRES   REMARKS
FARMINGTON     CLEAR     80  48  32 E13       30.07F
SANTA FE       LGT RAIN  64  57  78 NE18      30.26F
TAOS           CLOUDY    59  46  63 S9        30.32F

$$
NMZ402-403-502-505>509-020600-
WESTCENTRAL MOUNTAINS/SOUTHWEST MOUNTAINS

CITY           SKY/WX    TMP DP  RH WIND       PRES   REMARKS
GALLUP         TSTM      70  56  61 SE8G20    30.24R
SILVER CITY      N/A     75  50  41 NW7       30.15R

$$
NMZ407-409-411-412-020600-
SOUTHERN DESERTS

CITY           SKY/WX    TMP DP  RH WIND       PRES   REMARKS
DEMING         CLEAR     79  46  31 CALM      30.03R
HOLLOMAN AFB   CLEAR     84  46  26 SE6       30.00R
ALAMOGORDO     CLEAR     79  46  31 SE6       30.03R
T OR C         CLEAR     84  42  22 SW7       30.06R

$$
NMZ519>523-020600-
CENTRAL VALLEYS/CENTRAL HIGHLANDS

CITY           SKY/WX    TMP DP  RH WIND       PRES   REMARKS
ALBUQUERQUE    CLOUDY    80  51  36 N16G26    30.14R
DOUBLE EAGLE   CLOUDY    74  53  48 NE21G30   30.21R
CLINES CORNERS CLOUDY    73  42  32 S10       30.26R
BELEN          FAIR      82  41  23 SE6       30.09R
SOCORRO        NOT AVBL

$$
NMZ524>526-539-540-020600-
SOUTHCENTRAL MOUNTAINS

CITY           SKY/WX    TMP DP  RH WIND       PRES   REMARKS
RUIDOSO        CLEAR     66  48  52 SE8       30.29S

$$
NMZ527>531-020600-
NORTHEAST HIGHLANDS/NORTHEAST PLAINS

CITY           SKY/WX    TMP DP  RH WIND       PRES   REMARKS
LAS VEGAS      CLOUDY    67  51  56 NW10      30.28R
RATON          LGT RAIN  61  57  87 E10       30.29F FOG
CLAYTON        TSTM      65  62  90 N25G38    30.17R FOG

$$
NMZ532>537-020600-
EASTCENTRAL PLAINS

CITY           SKY/WX    TMP DP  RH WIND       PRES   REMARKS
TUCUMCARI      PTCLDY    82  52  35 S12       30.01R
CANNON AFB     NOT AVBL
CLOVIS AIRPORT CLEAR     73  57  56 S12         N/A

$$
NMZ028-029-538-020600-
SOUTHEAST PLAINS

CITY           SKY/WX    TMP DP  RH WIND       PRES   REMARKS
ROSWELL        CLEAR     79  58  48 S9        30.03R
ARTESIA        CLEAR     81  59  47 SE12      30.04R
CARLSBAD       CLEAR     82  60  47 SE13      30.00R
HOBBS          CLEAR     73  59  60 SE9       30.07R


$$



USA.gov is the U.S. government's official web portal to all federal, state and local government web resources and services.